Time,TemperatureF,DewpointF,PressureIn,WindDirection,WindDirectionDegrees,WindSpeedMPH,WindSpeedGustMPH,Humidity,HourlyPrecipIn,Conditions,Clouds,dailyrainin,SoftwareType,DateUTC
2013-01-27 06:14:00,9.0,1.8,30.01,WNW,292,7.0,7.0,72,0.00,,,0.00,Weather View 32 v70,2013-01-27 11:14:00,
2013-01-27 08:04:00,10.0,2.2,30.06,West,270,5.0,6.0,70,0.00,,,0.00,Weather View 32 v70,2013-01-27 13:04:00,
2013-01-27 08:09:00,10.0,1.9,30.06,WNW,292,4.0,6.0,69,0.00,,,0.00,Weather View 32 v70,2013-01-27 13:09:00,
2013-01-27 08:24:00,11.0,1.9,30.06,NW,315,6.0,7.0,66,0.00,,,0.00,Weather View 32 v70,2013-01-27 13:24:00,
2013-01-27 08:29:00,11.0,1.5,30.06,West,270,1.0,7.0,65,0.00,,,0.00,Weather View 32 v70,2013-01-27 13:29:00,
2013-01-27 08:34:00,12.0,1.5,30.07,West,270,6.0,9.0,62,0.00,,,0.00,Weather View 32 v70,2013-01-27 13:34:00,
2013-01-27 08:39:00,13.0,2.1,30.07,West,270,6.0,9.0,61,0.00,,,0.00,Weather View 32 v70,2013-01-27 13:39:00,
2013-01-27 08:44:00,13.0,1.7,30.06,WNW,292,9.0,9.0,60,0.00,,,0.00,Weather View 32 v70,2013-01-27 13:44:00,
2013-01-27 08:54:00,13.0,1.0,30.07,West,270,3.0,9.0,58,0.00,,,0.00,Weather View 32 v70,2013-01-27 13:54:00,
2013-01-27 09:04:00,15.0,2.5,30.08,WSW,247,3.0,9.0,57,0.00,,,0.00,Weather View 32 v70,2013-01-27 14:04:00,
2013-01-27 09:19:00,15.0,1.0,30.07,NW,315,4.0,9.0,53,0.00,,,0.00,Weather View 32 v70,2013-01-27 14:19:00,
2013-01-27 09:34:00,17.0,0.7,30.07,West,270,7.0,10.0,48,0.00,,,0.00,Weather View 32 v70,2013-01-27 14:34:00,
2013-01-27 09:39:00,17.0,-0.7,30.07,NW,315,1.0,10.0,45,0.00,,,0.00,Weather View 32 v70,2013-01-27 14:39:00,
2013-01-27 09:44:00,18.0,-1.2,30.07,NNE,22,1.0,10.0,42,0.00,,,0.00,Weather View 32 v70,2013-01-27 14:44:00,
2013-01-27 09:49:00,18.0,-2.3,30.07,SW,225,3.0,11.0,40,0.00,,,0.00,Weather View 32 v70,2013-01-27 14:49:00,
2013-01-27 09:54:00,18.0,-2.3,30.07,West,270,7.0,12.0,40,0.00,,,0.00,Weather View 32 v70,2013-01-27 14:54:00,
2013-01-27 10:04:00,19.0,-1.9,30.07,WNW,292,9.0,12.0,39,0.00,,,0.00,Weather View 32 v70,2013-01-27 15:04:00,
2013-01-27 10:24:00,20.0,-2.1,30.07,NE,45,2.0,12.0,37,0.00,,,0.00,Weather View 32 v70,2013-01-27 15:24:00,
2013-01-27 10:39:00,21.0,-1.2,30.07,NW,315,2.0,12.0,37,0.00,,,0.00,Weather View 32 v70,2013-01-27 15:39:00,
2013-01-27 10:44:00,21.0,-1.2,30.08,WSW,247,2.0,12.0,37,0.00,,,0.00,Weather View 32 v70,2013-01-27 15:44:00,
2013-01-27 10:49:00,21.0,-1.8,30.08,NW,315,7.0,12.0,36,0.00,,,0.00,Weather View 32 v70,2013-01-27 15:49:00,
2013-01-27 10:54:00,22.0,-0.9,30.07,West,270,6.0,11.0,36,0.00,,,0.00,Weather View 32 v70,2013-01-27 15:54:00,
2013-01-27 10:59:00,21.0,-2.4,30.07,West,270,7.0,11.0,35,0.00,,,0.00,Weather View 32 v70,2013-01-27 15:59:00,
2013-01-27 11:09:00,22.0,-1.5,30.07,North,360,0.0,10.0,35,0.00,,,0.00,Weather View 32 v70,2013-01-27 16:09:00,
2013-01-27 11:14:00,22.0,-1.5,30.07,West,270,6.0,10.0,35,0.00,,,0.00,Weather View 32 v70,2013-01-27 16:14:00,
2013-01-27 11:19:00,22.0,-0.9,30.07,West,270,2.0,10.0,36,0.00,,,0.00,Weather View 32 v70,2013-01-27 16:19:00,
2013-01-27 11:24:00,23.0,-1.2,30.06,WNW,292,11.0,11.0,34,0.00,,,0.00,Weather View 32 v70,2013-01-27 16:24:00,
2013-01-27 11:44:00,23.0,-0.6,30.06,WNW,292,8.0,11.0,35,0.00,,,0.00,Weather View 32 v70,2013-01-27 16:44:00,
2013-01-27 12:04:00,25.0,1.2,30.04,West,270,7.0,11.0,35,0.00,,,0.00,Weather View 32 v70,2013-01-27 17:04:00,
2013-01-27 12:54:00,27.0,1.7,30.04,SW,225,1.0,7.0,33,0.00,,,0.00,Weather View 32 v70,2013-01-27 17:54:00,
2013-01-27 12:59:00,26.0,0.2,30.04,East,90,3.0,7.0,32,0.00,,,0.00,Weather View 32 v70,2013-01-27 17:59:00,
2013-01-27 13:04:00,26.0,-0.5,30.04,NW,315,7.0,12.0,31,0.00,,,0.00,Weather View 32 v70,2013-01-27 18:04:00,
2013-01-27 13:09:00,27.0,-0.3,30.04,SW,225,3.0,12.0,30,0.00,,,0.00,Weather View 32 v70,2013-01-27 18:09:00,
2013-01-27 13:14:00,27.0,-1.0,30.04,West,270,6.0,12.0,29,0.00,,,0.00,Weather View 32 v70,2013-01-27 18:14:00,
2013-01-27 13:19:00,27.0,-1.8,30.04,East,90,2.0,12.0,28,0.00,,,0.00,Weather View 32 v70,2013-01-27 18:19:00,
2013-01-27 13:24:00,28.0,-0.2,30.03,NW,315,2.0,12.0,29,0.00,,,0.00,Weather View 32 v70,2013-01-27 18:24:00,
2013-01-27 13:29:00,27.0,-1.8,30.03,SW,225,2.0,12.0,28,0.00,,,0.00,Weather View 32 v70,2013-01-27 18:29:00,
2013-01-27 13:34:00,28.0,-0.2,30.03,West,270,0.0,12.0,29,0.00,,,0.00,Weather View 32 v70,2013-01-27 18:34:00,
2013-01-27 13:44:00,29.0,-0.1,30.03,WNW,292,5.0,12.0,28,0.00,,,0.00,Weather View 32 v70,2013-01-27 18:44:00,
2013-01-27 14:04:00,29.0,-0.8,30.03,WNW,292,6.0,11.0,27,0.00,,,0.00,Weather View 32 v70,2013-01-27 19:04:00,
2013-01-27 14:34:00,29.0,-0.8,30.03,WNW,292,5.0,7.0,27,0.00,,,0.00,Weather View 32 v70,2013-01-27 19:34:00,
2013-01-27 14:49:00,28.0,-0.9,30.03,West,270,2.0,7.0,28,0.00,,,0.00,Weather View 32 v70,2013-01-27 19:49:00,
2013-01-27 14:56:00,28.0,-0.9,30.04,WNW,292,3.0,7.0,28,0.00,,,0.00,Weather View 32 v70,2013-01-27 19:56:00,
2013-01-27 15:09:00,29.0,-0.1,30.04,NW,315,0.0,7.0,28,0.00,,,0.00,Weather View 32 v70,2013-01-27 20:09:00,
2013-01-27 15:24:00,28.0,-0.9,30.04,NW,315,4.0,9.0,28,0.00,,,0.00,Weather View 32 v70,2013-01-27 20:24:00,
2013-01-27 15:29:00,28.0,-1.7,30.04,WNW,292,0.0,9.0,27,0.00,,,0.00,Weather View 32 v70,2013-01-27 20:29:00,
2013-01-27 15:44:00,28.0,-0.2,30.05,WNW,292,0.0,9.0,29,0.00,,,0.00,Weather View 32 v70,2013-01-27 20:44:00,
2013-01-27 16:29:00,25.0,-1.4,30.06,SW,225,5.0,6.0,31,0.00,,,0.00,Weather View 32 v70,2013-01-27 21:29:00,
2013-01-27 16:34:00,25.0,-1.4,30.07,West,270,3.0,6.0,31,0.00,,,0.00,Weather View 32 v70,2013-01-27 21:34:00,
2013-01-27 16:39:00,24.0,-1.6,30.07,NW,315,1.0,6.0,32,0.00,,,0.00,Weather View 32 v70,2013-01-27 21:39:00,
2013-01-27 16:44:00,24.0,-1.6,30.08,West,270,3.0,6.0,32,0.00,,,0.00,Weather View 32 v70,2013-01-27 21:44:00,
2013-01-27 17:09:00,23.0,-1.8,30.08,WNW,292,4.0,7.0,33,0.00,,,0.00,Weather View 32 v70,2013-01-27 22:09:00,
2013-01-27 17:14:00,22.0,-2.7,30.09,West,270,4.0,7.0,33,0.00,,,0.00,Weather View 32 v70,2013-01-27 22:14:00,
2013-01-27 17:19:00,22.0,-2.7,30.09,NW,315,3.0,7.0,33,0.00,,,0.00,Weather View 32 v70,2013-01-27 22:19:00,
2013-01-27 17:24:00,22.0,-2.1,30.10,West,270,0.0,7.0,34,0.00,,,0.00,Weather View 32 v70,2013-01-27 22:24:00,
2013-01-27 17:29:00,22.0,-2.1,30.10,West,270,2.0,7.0,34,0.00,,,0.00,Weather View 32 v70,2013-01-27 22:29:00,
2013-01-27 17:34:00,22.0,-1.5,30.10,West,270,0.0,8.0,35,0.00,,,0.00,Weather View 32 v70,2013-01-27 22:34:00,
2013-01-27 17:39:00,21.0,-3.0,30.10,WNW,292,1.0,8.0,34,0.00,,,0.00,Weather View 32 v70,2013-01-27 22:39:00,
2013-01-27 17:44:00,22.0,-2.1,30.10,West,270,1.0,8.0,34,0.00,,,0.00,Weather View 32 v70,2013-01-27 22:44:00,
2013-01-27 17:49:00,21.0,-3.0,30.10,West,270,6.0,8.0,34,0.00,,,0.00,Weather View 32 v70,2013-01-27 22:49:00,
2013-01-27 17:54:00,22.0,-2.7,30.11,West,270,4.0,10.0,33,0.00,,,0.00,Weather View 32 v70,2013-01-27 22:54:00,
2013-01-27 17:59:00,21.0,-3.0,30.11,West,270,5.0,10.0,34,0.00,,,0.00,Weather View 32 v70,2013-01-27 22:59:00,
2013-01-27 18:09:00,21.0,-3.0,30.11,NW,315,2.0,11.0,34,0.00,,,0.00,Weather View 32 v70,2013-01-27 23:09:00,
2013-01-27 18:14:00,21.0,-3.0,30.12,West,270,1.0,11.0,34,0.00,,,0.00,Weather View 32 v70,2013-01-27 23:14:00,
2013-01-27 18:19:00,21.0,-3.0,30.12,WNW,292,1.0,11.0,34,0.00,,,0.00,Weather View 32 v70,2013-01-27 23:19:00,
2013-01-27 18:24:00,21.0,-2.4,30.12,West,270,1.0,11.0,35,0.00,,,0.00,Weather View 32 v70,2013-01-27 23:24:00,
2013-01-27 18:29:00,20.0,-3.3,30.12,WNW,292,1.0,11.0,35,0.00,,,0.00,Weather View 32 v70,2013-01-27 23:29:00,
2013-01-27 18:34:00,20.0,-2.7,30.13,West,270,1.0,11.0,36,0.00,,,0.00,Weather View 32 v70,2013-01-27 23:34:00,
2013-01-27 18:39:00,20.0,-2.7,30.13,West,270,0.0,11.0,36,0.00,,,0.00,Weather View 32 v70,2013-01-27 23:39:00,
2013-01-27 18:44:00,20.0,-2.7,30.13,West,270,5.0,11.0,36,0.00,,,0.00,Weather View 32 v70,2013-01-27 23:44:00,
2013-01-27 18:49:00,20.0,-2.7,30.13,WNW,292,5.0,11.0,36,0.00,,,0.00,Weather View 32 v70,2013-01-27 23:49:00,
2013-01-27 18:54:00,20.0,-2.7,30.13,West,270,5.0,11.0,36,0.00,,,0.00,Weather View 32 v70,2013-01-27 23:54:00,
2013-01-27 18:59:00,19.0,-3.6,30.13,West,270,4.0,11.0,36,0.00,,,0.00,Weather View 32 v70,2013-01-27 23:59:00,
2013-01-27 19:04:00,19.0,-4.2,30.13,WNW,292,6.0,11.0,35,0.00,,,0.00,Weather View 32 v70,2013-01-28 00:04:00,
2013-01-27 19:09:00,19.0,-3.6,30.13,West,270,0.0,9.0,36,0.00,,,0.00,Weather View 32 v70,2013-01-28 00:09:00,
2013-01-27 19:14:00,19.0,-3.6,30.14,WSW,247,0.0,7.0,36,0.00,,,0.00,Weather View 32 v70,2013-01-28 00:14:00,
2013-01-27 19:19:00,19.0,-3.6,30.14,NW,315,4.0,7.0,36,0.00,,,0.00,Weather View 32 v70,2013-01-28 00:19:00,
2013-01-27 19:24:00,19.0,-3.0,30.13,West,270,0.0,7.0,37,0.00,,,0.00,Weather View 32 v70,2013-01-28 00:24:00,
2013-01-27 19:29:00,18.0,-3.3,30.13,West,270,0.0,7.0,38,0.00,,,0.00,Weather View 32 v70,2013-01-28 00:29:00,
2013-01-27 19:39:00,17.0,-4.2,30.14,North,360,0.0,7.0,38,0.00,,,0.00,Weather View 32 v70,2013-01-28 00:39:00,
2013-01-27 19:44:00,17.0,-4.2,30.14,North,360,0.0,7.0,38,0.00,,,0.00,Weather View 32 v70,2013-01-28 00:44:00,
2013-01-27 19:49:00,16.0,-4.6,30.14,North,360,0.0,7.0,39,0.00,,,0.00,Weather View 32 v70,2013-01-28 00:49:00,
2013-01-27 19:54:00,16.0,-4.1,30.14,North,360,0.0,7.0,40,0.00,,,0.00,Weather View 32 v70,2013-01-28 00:54:00,
2013-01-27 19:59:00,16.0,-3.6,30.14,North,360,0.0,7.0,41,0.00,,,0.00,Weather View 32 v70,2013-01-28 00:59:00,
2013-01-27 20:04:00,16.0,-3.0,30.14,North,360,0.0,7.0,42,0.00,,,0.00,Weather View 32 v70,2013-01-28 01:04:00,
2013-01-27 20:09:00,16.0,-3.0,30.14,North,360,0.0,6.0,42,0.00,,,0.00,Weather View 32 v70,2013-01-28 01:09:00,
2013-01-27 20:14:00,16.0,-3.0,30.14,NW,315,1.0,6.0,42,0.00,,,0.00,Weather View 32 v70,2013-01-28 01:14:00,
2013-01-27 20:19:00,16.0,-3.0,30.14,NW,315,0.0,6.0,42,0.00,,,0.00,Weather View 32 v70,2013-01-28 01:19:00,
2013-01-27 20:24:00,16.0,-3.0,30.14,West,270,1.0,5.0,42,0.00,,,0.00,Weather View 32 v70,2013-01-28 01:24:00,
2013-01-27 20:34:00,16.0,-3.0,30.14,WNW,292,0.0,6.0,42,0.00,,,0.00,Weather View 32 v70,2013-01-28 01:34:00,
2013-01-27 20:39:00,16.0,-3.0,30.14,WNW,292,0.0,6.0,42,0.00,,,0.00,Weather View 32 v70,2013-01-28 01:39:00,
2013-01-27 20:44:00,16.0,-3.0,30.14,WNW,292,1.0,6.0,42,0.00,,,0.00,Weather View 32 v70,2013-01-28 01:44:00,
2013-01-27 20:49:00,15.0,-3.5,30.14,WNW,292,2.0,6.0,43,0.00,,,0.00,Weather View 32 v70,2013-01-28 01:49:00,
2013-01-27 21:00:00,15.0,-3.5,30.14,West,270,0.0,6.0,43,0.00,,,0.00,Weather View 32 v70,2013-01-28 02:00:00,
2013-01-27 21:09:00,14.0,-4.4,30.14,West,270,0.0,6.0,43,0.00,,,0.00,Weather View 32 v70,2013-01-28 02:09:00,
2013-01-27 21:14:00,13.0,-5.3,30.14,West,270,0.0,6.0,43,0.00,,,0.00,Weather View 32 v70,2013-01-28 02:14:00,
2013-01-27 21:24:00,13.0,-5.3,30.14,West,270,0.0,6.0,43,0.00,,,0.00,Weather View 32 v70,2013-01-28 02:24:00,
2013-01-27 21:29:00,13.0,-4.8,30.14,West,270,0.0,6.0,44,0.00,,,0.00,Weather View 32 v70,2013-01-28 02:29:00,
2013-01-27 21:34:00,13.0,-4.8,30.14,West,270,0.0,6.0,44,0.00,,,0.00,Weather View 32 v70,2013-01-28 02:34:00,
2013-01-27 21:59:00,15.0,-4.5,30.14,WNW,292,0.0,2.0,41,0.00,,,0.00,Weather View 32 v70,2013-01-28 02:59:00,
2013-01-27 22:09:00,14.0,-5.9,30.14,West,270,3.0,3.0,40,0.00,,,0.00,Weather View 32 v70,2013-01-28 03:09:00,